Regional Weather Roundup
Issued by NWS

Home | Current Version | Previous Version | Text Only | Print | Product List | Glossary Off
Versions: 1 2 3 4 5 6 7 8 9 10 11 12 13 14 15 16 17 18 19 20 21 22 23 24 25 26 27 28 29 30 31 32 33 34 35 36 37 38 39 40 41 42 43 44 45 46 47 48 49 50

000
ASUS43 KDMX 262101
RWRIA

WEATHER ROUNDUP FOR IOWA
NATIONAL WEATHER SERVICE DES MOINES IA
400 PM CDT SAT MAY 26 2018

NOTE: "FAIR" INDICATES FEW OR NO CLOUDS BELOW 12,000 FEET WITH NO
SIGNIFICANT WEATHER AND/OR OBSTRUCTIONS TO VISIBILITY.

* - THESE STATIONS ARE NOT NWS STATIONS...THUS NOT UNDER NWS
QUALITY CONTROL.  THEY ALSO DO NOT REPORT WEATHER SUCH
AS PRECIPITATION OR FOG.

IAZ001>003-012>014-020>022-031>034-043>046-262200-
   NORTHWEST IOWA

CITY           SKY/WX    TMP DP  RH WIND       PRES   REMARKS
CARROLL *      SUNNY     97  43  15 VRB7G16   29.74F HX  92
CHEROKEE *     SUNNY     92  55  28 W8        29.75S HX  90
DENISON *      SUNNY     95  48  20 N9G15     29.77S HX  91
LE MARS *      SUNNY     97  46  17 NW10G17   29.74F HX  93
ORANGE CITY *  SUNNY     93  52  24 NW6       29.77S HX  90
SHELDON *      SUNNY     95  46  18 NW9G22    29.74F HX  91
SIOUX CITY     SUNNY     96  56  26 N8        29.74F HX  94
SPENCER        SUNNY     95  53  24 N10G21    29.75S HX  92
STORM LAKE *   SUNNY     93  48  21 N14       29.76F HX  90
$$

IAZ055>058-069>071-079>083-090>094-262200-
   SOUTHWEST IOWA

CITY           SKY/WX    TMP DP  RH WIND       PRES   REMARKS
ATLANTIC *     SUNNY     97  52  21 N7G17     29.74F HX  94
AUDUBON *      SUNNY     97  43  15 W3        29.77F HX  92
CLARINDA *     MOSUNNY   99  59  26 CALM      29.76F HX  98
COUNCIL BLFS * SUNNY     95  57  28 W5        29.76S HX  94
CRESTON *      SUNNY     95  48  20 VRB6G14   29.77F HX  91
HARLAN  *      SUNNY     95  52  23 NW12      29.78F HX  92
LAMONI         SUNNY     91  68  46 SE5       29.76F HX  95
RED OAK *      SUNNY     99  52  20 VRB7      29.74S HX  96
SHENANDOAH *   MOSUNNY   99  54  22 W10       29.74S HX  96
$$

IAZ047>049-059>061-072>074-084-262200-
   CENTRAL IOWA

CITY           SKY/WX    TMP DP  RH WIND       PRES   REMARKS
AMES           SUNNY     92  64  39 SE8       29.72F HX  93
ANKENY *       SUNNY     95  64  36 SW7       29.73F HX  97
BOONE *        SUNNY     97  54  23 W8        29.73S HX  94
CHARITON *     SUNNY     93  61  33 NW6       29.76S HX  93
DES MOINES     MOSUNNY   95  63  34 VRB5      29.72F HX  96
GRINNELL*      CLOUDY    92  59  32 E5        29.75F HX  91
KNOXVILLE *    MOSUNNY   93  61  33 CALM      29.73F HX  93
MARSHALLTOWN   SUNNY     94  66  39 N5        29.73S HX  97
NEWTON *       MOSUNNY   95  55  26 CALM      29.74S HX  93
PELLA *        SUNNY     94  59  30 SW7       29.74F HX  93
PERRY *        FAIR      95  34  11 NW14G21   29.73F HX  90
$$

IAZ004>006-015-016-023>025-035-036-262200-
   NORTH CENTRAL IOWA

CITY           SKY/WX    TMP DP  RH WIND       PRES   REMARKS
ALGONA *       SUNNY     91  50  24 W14       29.75S HX  88
CLARION *      SUNNY     95  50  21 VRB7G14   29.74S HX  92
ESTHERVILLE    SUNNY     91  55  29 NW12G20   29.74F HX  89
FORT DODGE *   SUNNY     95  53  24 N9        29.74F HX  92
MASON CITY     SUNNY     92  59  33 SW10      29.74F HX  91
FOREST CITY *  FAIR      91  55  29 W7        29.74S HX  89
WEBSTER CITY * SUNNY     95  48  20 VRB6      29.71S HX  91
IOWA FALLS *   FAIR      94  53  24 W5        29.75S HX  91
$$

IAZ007>011-017>019-026>030-037>042-050>054-066-262200-
   NORTHEAST IOWA

CITY           SKY/WX    TMP DP  RH WIND       PRES   REMARKS
CEDAR RAPIDS   FAIR      90  65  43 SE7       29.75F HX  92
CHARLES CITY * FAIR      91  57  31 CALM      29.74F HX  90
CLINTON *        N/A     90  62  39 SW7       29.76F HX  90
DECORAH *      FAIR      86  66  51 S6G13     29.74F HX  88
DUBUQUE        FAIR      87  63  44 CALM      29.77F HX  88
MONTICELLO *   FAIR      90  64  43 S7        29.75F HX  91
OELWEIN *      FAIR      90  64  43 SE7       29.76S HX  91
WATERLOO       PTSUNNY   91  62  37 W7        29.72F HX  91
$$

IAZ064-065-067-068-078-262200-
   EAST CENTRAL IOWA

CITY           SKY/WX    TMP DP  RH WIND       PRES   REMARKS
DAVENPORT      FAIR      89  65  44 CALM      29.77F HX  91
IOWA CITY      FAIR      91  62  37 SE5       29.76F HX  91
MUSCATINE *    FAIR      91  70  49 SW5       29.75F HX  97
QUAD CITIES    FAIR      92  69  47 VRB5      29.74F HX  97
$$

IAZ062-063-075>077-085>089-095>099-262200-
   SOUTHEAST IOWA

CITY           SKY/WX    TMP DP  RH WIND       PRES   REMARKS
BURLINGTON     SUNNY     92  68  45 CALM      29.74F HX  96
FAIRFIELD *    SUNNY     91  66  43 SE6       29.74F HX  94
FORT MADISON * SUNNY     91  72  52 CALM      29.75F HX  98
KEOKUK *       MOSUNNY   91  72  52 S7        29.73F HX  98
OSKALOOSA *    FAIR      95  61  32 W9        29.74F HX  95
CENTERVILLE *    N/A     93  66  40 CALM      29.77F HX  96
OTTUMWA        SUNNY     92  67  43 SE7       29.74F HX  95
WASHINGTON *   SUNNY     91  70  49 S6        29.76F HX  97
$$

ABBREVIATIONS USED IN REMARKS
   TC - TEMPERATURES IN CELSIUS
  WCI - WIND CHILL INDEX
   HX - HEAT INDEX
  VSB - VISIBILITY
$$





USA.gov is the U.S. government's official web portal to all federal, state and local government web resources and services.